Location: Carlisle
(34.5501°N, 84.5969°W)
Time: 11:34:56
(UTC+00:00)

UNISAT 6 - Pass Details

Date: 04 April 2023
Orbit: 599 x 679 km, 97.7° (Epoch: 07 June)

Event Time Altitude Azimuth Distance (km) Brightness Sun altitude
Rises 00:20:07 0° 351° (N) 3,048 ? -4.7°
Reaches altitude 10° 00:23:06 10° 331° (NNW) 2,126 ? -5.3°
Maximum altitude 00:25:57 16° 293° (WNW) 1,723 ? -5.9°
Drops below altitude 10° 00:28:49 10° 254° (WSW) 2,105 ? -6.5°
Sets 00:31:45 0° 234° (SW) 3,003 ? -7.1°
